Regional Weather Roundup
Issued by NWS

Home | Current Version | Previous Version | Text Only | Print | Product List | Glossary Off
Versions: 1 2 3 4 5 6 7 8 9 10 11 12 13 14 15 16 17 18 19 20 21 22 23 24 25 26 27 28 29 30 31 32 33 34 35 36 37 38 39 40 41 42 43 44 45 46 47 48 49 50

000
ASUS45 KCYS 141710
RWRWY

WYOMING REGIONAL WEATHER ROUNDUP
NATIONAL WEATHER SERVICE CHEYENNE WY
1100 AM MDT SUN SEP 14 2014

NOTE:  "FAIR" INDICATES FEW OR NO CLOUDS BELOW 12,000 FEET
WITH NO SIGNIFICANT WEATHER AND/OR OBSTRUCTIONS TO VISIBILITY.

WYZ001-141800-
YELLOWSTONE NATIONAL PARK

CITY           SKY/WX    TMP DP  RH WIND       PRES   REMARKS
LK YELLOWSTONE   N/A     55  37  50 CALM      30.23S
W YELLOWSTONE  NOT AVBL

$$
WYZ002>013-054>058-071-098>099-141800-
NORTHERN WYOMING

CITY           SKY/WX    TMP DP  RH WIND       PRES   REMARKS
JACKSON        SUNNY     55  28  35 CALM      30.17F
CODY           SUNNY     52  37  58 NE6       30.10S
GREYBULL       SUNNY     55  38  52 N3        30.08F
WORLAND        SUNNY     53  40  61 VRB5      30.08F
SHERIDAN       SUNNY     49  38  65 CALM      30.10S
BUFFALO        SUNNY     50  38  63 N5        30.10R
GILLETTE       SUNNY     51  39  63 SE13G18   30.09F
HULETT         CLOUDY    52  37  58 MISG      30.13
NEWCASTLE      PTSUNNY   46  36  66 S6        30.14

$$
WYZ014>020-022>026-101>103-141800-
CENTRAL WYOMING

CITY           SKY/WX    TMP DP  RH WIND       PRES   REMARKS
BIG PINEY      SUNNY     59  31  34 E6        30.20S
PINEDALE       SUNNY     63  30  29 CALM      30.20F
DUBOIS         FAIR      64  18  16 NW26G36   30.13S
LANDER         PTSUNNY   59  36  42 SE7       30.09S
RIVERTON       MOSUNNY   54  35  48 E5        30.10F
CASPER         MOSUNNY   59  35  40 SE5       30.08F
DOUGLAS        MOSUNNY   55  37  50 SE5       30.10S

$$
WYZ021-027>030-104>119-141800-
SOUTHERN WYOMING

CITY           SKY/WX    TMP DP  RH WIND       PRES   REMARKS
EVANSTON       MOSUNNY   71  33  24 SW17G23   30.22S
KEMMERER       SUNNY     68  28  22 W15       30.22S
FORT BRIDGER   FAIR      74  30  20 W20G25    30.24R
ROCK SPRINGS   SUNNY     70  26  19 SW10      30.18S
DIXON          FAIR      68  37  32 SW14      30.22F
RAWLINS        MOSUNNY   70  27  20 SW14G28   30.17F
SARATOGA       FAIR      72  32  23 SW22G29   30.20S
LARAMIE        MOSUNNY   67  32  27 SW18G26   30.19S
CHEYENNE       SUNNY     75  28  17 W12       30.13F
TORRINGTON     CLOUDY    48  45  89 VRB3      30.09F
PINE BLUFFS    FAIR      70  41  35 SE3       30.09F

$$



USA.gov is the U.S. government's official web portal to all federal, state and local government web resources and services.